Regional Weather Roundup
Issued by NWS Goodland, KS

Home | Current Version | Previous Version | Text Only | Print | Product List | Glossary On
Versions: 1 2 3 4 5 6 7 8 9 10 11 12 13 14 15 16 17 18 19 20 21 22 23 24 25 26 27 28 29 30 31 32 33 34 35 36 37 38 39 40 41 42 43 44 45 46 47 48 49 50
000
ASUS43 KGLD 240608
RWRGLD

GOODLAND FORECAST AREA HOURLY WEATHER ROUNDUP
NATIONAL WEATHER SERVICE GOODLAND KS
1200 AM MDT WED MAY 24 2017

...OFFICIAL OBSERVATIONS...

CITY           SKY/WX    TMP DP  RH WIND       PRES   REMARKS
GOODLAND KS    CLEAR     38  35  89 W7        30.01F
HILL CITY KS   CLEAR     44  39  82 N8        29.97S
IMPERIAL NEB   CLEAR     42  35  76 N7        30.01S
MCCOOK NEB     CLEAR     43  37  79 N9        29.98F
AKRON CO       CLOUDY    45  34  65 E3        30.04S
BURLINGTON CO  CLEAR     38  35  89 W7        30.03F
LIMON CO       CLEAR     35  32  88 NW5       30.08F
$$

...UNOFFICIAL OBSERVATIONS...

CITY           SKY/WX    TMP DP  RH WIND       PRES   REMARKS
LENORA KS        N/A     44  32  63 MISG        N/A
NORTON KS      CLEAR     41  36  81 NW6       29.96S
SHARON SPRINGS   N/A     40  36  85 W7          N/A
TRENTON NEB      N/A     39  32  76 NW5         N/A
KIT CARSON CO    N/A     40  36  85 CALM        N/A
YUMA CO        FAIR      37  34  87 N5        30.02F
$$



USA.gov is the U.S. government's official web portal to all federal, state and local government web resources and services.